User: anonymous   Login
Location: ??
(35.5052°N, 139.7262°E)
Time: 11:11:58
(UTC+00:00)
Language:

NOAA 16 DEB - Orbit

View from above orbital plane
View from above orbital plane
View from above satellite
View from above satellite

Ground track
Ground track

The orbit data is extracted from the following two-line orbital elements,

1 41501U 00055LZ  22228.73110648  .00004359  00000-0  16024-2 0  9993
2 41501  98.6897 324.1049 0057314 149.3788 211.0761 14.32266231335989
Epoch (UTC): 16 August 2022 17:32:47
Eccentricity: 0.0057314
inclination: 98.6897°
perigee height: 743 km
apogee height: 825 km
right ascension of ascending node: 324.1049°
argument of perigee: 149.3788°
revolutions per day: 14.32266231
mean anomaly at epoch: 211.0761°
orbit number at epoch: 33598

The dashed part of the orbit path shows where the satellite is in the earth's shadow,  

DLR